Location: Newark
(50.4348°N, 30.5552°E)
Time: 00:47:02
(UTC+00:00)

Tiros 1 despin weight - Pass Details

Date: 01 February 2020
Orbit: 594 x 642 km, 48.2° (Epoch: 27 February)

Event Time Altitude Azimuth Distance (km) Brightness Sun altitude
Rises 09:55:59 0° 270° (W) 2,863 ? 22.3°
Reaches altitude 10° 09:58:17 10° 268° (W) 1,966 ? 22.3°
Maximum altitude 10:02:45 64° 187° (S) 686 ? 22.3°
Drops below altitude 10° 10:07:17 10° 106° (ESE) 1,995 ? 22.4°
Sets 10:09:38 0° 104° (ESE) 2,909 ? 22.4°
